[[{"header":{"parameterUnit":"m.s-1","parameterCategory":1,"la1":30.2991,"la2":30.254,"lo1":-89.0895,"lo2":-89.0444,"dy":0.0017,"dx":0.0017,"nx":28,"ny":28,"refTime":"2024-02-10T09:00:00:Z","depth":0,"parameterNumber":2,"parameterNumberName":"U-component_of_WINDS"},"data":[0,0,0,0,0,0,0,0,0,0,0,0,0,0,0,0,0,0,0,0,0,0,0,0,0,0,0,0,0,0,0,0,0,0,0,0,0,0,0,0,0,0,0,0,0,0,0,0,0,0,0,0,0,0,0,0,0,0,-1.83,-1.83,0,-1.8305,-1.8305,-1.8305,-1.8275,-1.8275,-1.8274,-1.8273,-1.8278,-1.8279,-1.828,0,0,0,0,0,0,0,0,0,0,0,0,0,-1.8265,-1.8266,-1.83,-1.83,-1.83,-1.8305,-1.8305,-1.8305,-1.8276,-1.8275,-1.8273,-1.8273,-1.8278,-1.8279,-1.828,0,0,0,0,0,0,0,0,0,0,0,0,0,-1.8276,-1.8266,-1.83,-1.8286,-1.8285,-1.8305,-1.8305,-1.8305,-1.8276,-1.8274,-1.8273,-1.8272,-1.8278,-1.8279,-1.8281,-1.8314,0,0,-1.8285,-1.8285,0,0,0,0,0,0,0,0,-1.8276,-1.8278,-1.8288,-1.8287,-1.8286,-1.8288,-1.8294,-1.8308,-1.8276,-1.8279,-1.8273,-1.8271,-1.8283,-1.8284,-1.8287,-1.8315,-1.8315,-1.8285,-1.8286,-1.8286,-1.8287,0,0,0,0,0,0,0,-1.8275,-1.8277,-1.8302,-1.8288,-1.8287,-1.8279,-1.828,-1.8297,-1.8288,-1.8279,-1.8277,-1.8278,-1.8282,-1.8286,-1.8287,-1.8315,-1.8285,-1.8286,-1.8287,-1.8288,-1.8369,-1.837,0,0,0,0,0,0,-1.8276,-1.8277,-1.8302,-1.8302,-1.8277,-1.8281,-1.8281,-1.8289,-1.8288,-1.8286,-1.8279,-1.8276,-1.8284,-1.8286,-1.8287,-1.8326,-1.8286,-1.8288,-1.8288,-1.8367,-1.8369,-1.837,0,0,0,0,0,0,-1.8275,-1.8279,-1.8301,-1.8289,-1.8291,-1.8283,-1.8291,-1.8289,-1.8293,-1.8288,-1.8286,-1.8285,-1.8283,-1.8285,-1.8307,-1.8326,-1.8288,-1.829,-1.8366,-1.8368,-1.837,-1.8404,0,0,0,0,0,0,-1.8275,-1.8278,-1.8291,-1.8289,-1.8292,-1.8322,-1.8293,-1.829,-1.8296,-1.8293,-1.8293,-1.8291,-1.8283,-1.8306,-1.8309,-1.8327,-1.8291,-1.8364,-1.8367,-1.8369,-1.8401,-1.8407,-1.8412,0,0,0,0,0,-1.8273,-1.8301,-1.8292,-1.8295,-1.8308,-1.8323,-1.8324,-1.8313,-1.8298,-1.831,-1.8306,-1.8291,-1.8323,-1.8308,-1.8312,-1.833,-1.8363,-1.8366,-1.8369,-1.8399,-1.8406,-1.8412,0,0,0,0,0,0,-1.8307,-1.8301,-1.8291,-1.8319,-1.8321,-1.8318,-1.8334,-1.8321,-1.8329,-1.8326,-1.8312,-1.8312,-1.8336,-1.8335,-1.8319,-1.8362,-1.834,-1.8344,-1.8362,-1.8369,-1.8374,-1.8374,-1.8292,0,0,0,0,0,-1.8317,-1.833,-1.8324,-1.8349,-1.8351,-1.8342,-1.8348,-1.8339,-1.8342,-1.8343,-1.8341,-1.8343,-1.8354,-1.8361,-1.8371,-1.8401,-1.84,-1.8416,-1.8421,-1.8425,-1.8429,-1.8444,-1.8451,-1.838,-1.838,-1.838,0,0,-1.8339,-1.8337,-1.8346,-1.8356,-1.8357,-1.837,-1.8343,-1.8359,-1.8368,-1.8345,-1.8366,-1.8364,-1.8366,-1.8393,-1.8404,-1.8393,-1.8448,-1.8429,-1.8433,-1.8434,-1.8448,-1.8454,-1.846,-1.8382,-1.8382,-1.8382,0,0,-1.8386,-1.8386,-1.8407,-1.8408,-1.8409,-1.8403,-1.8408,-1.8406,-1.8404,-1.8424,-1.8407,-1.8418,-1.8437,-1.8439,-1.8442,-1.8488,-1.8475,-1.8491,-1.8519,-1.8534,-1.854,-1.8545,-1.8561,-1.8567,-1.8495,-1.8495,-1.8495,0,-1.8413,-1.8432,-1.8419,-1.8435,-1.8439,-1.8418,-1.8439,-1.8441,-1.8446,-1.8449,-1.8436,-1.8458,-1.8459,-1.8484,-1.8496,-1.8499,-1.8504,-1.8492,-1.854,-1.8545,-1.8549,-1.8564,-1.857,-1.8497,-1.8497,-1.8497,-1.8496,0,-1.8465,-1.8479,-1.8495,-1.8499,-1.8505,-1.8524,-1.8513,-1.8521,-1.8511,-1.8506,-1.8527,-1.8526,-1.8534,-1.854,-1.8531,-1.8564,-1.8557,-1.8542,-1.852,-1.8558,-1.8572,-1.8578,-1.85,-1.8499,-1.8499,-1.8498,0,0,-1.8534,-1.853,-1.8536,-1.8537,-1.8537,-1.8547,-1.8564,-1.8571,-1.8578,-1.8582,-1.8595,-1.8611,-1.8597,-1.8601,-1.8592,-1.8605,-1.8641,-1.8589,-1.8588,-1.8598,-1.8677,-1.8688,-1.8694,-1.8632,-1.8633,-1.8634,-1.8676,0,-1.8579,-1.8608,-1.8596,-1.8625,-1.8637,-1.8617,-1.8631,-1.8632,-1.8628,-1.8637,-1.8632,-1.8643,-1.8624,-1.8626,-1.8638,-1.8634,-1.8656,-1.8631,-1.8644,-1.8645,-1.8644,-1.8702,-1.8714,-1.8754,-1.8682,-1.8683,-1.8683,0,-1.8636,-1.8641,-1.8672,-1.8668,-1.8672,-1.8686,-1.8691,-1.87,-1.8701,-1.8697,-1.8701,-1.8688,-1.8704,-1.8682,-1.8703,-1.8686,-1.8691,-1.8689,-1.869,-1.8691,-1.8666,-1.8704,-1.8767,-1.8773,-1.8692,-1.8691,-1.8691,0,-1.8683,-1.8697,-1.8717,-1.8719,-1.8715,-1.8725,-1.8724,-1.8723,-1.8728,-1.8733,-1.8736,-1.8743,-1.8746,-1.8752,-1.8741,-1.8726,-1.8764,-1.8741,-1.8761,-1.8761,-1.877,-1.877,-1.8835,-1.8774,-1.8774,-1.8774,-1.8773,0,-1.8734,-1.8754,-1.8737,-1.875,-1.8771,-1.8756,-1.8777,-1.8774,-1.8773,-1.8785,-1.8767,-1.8778,-1.8764,-1.8773,-1.8765,-1.8784,-1.8786,-1.8783,-1.878,-1.8784,-1.8785,-1.8787,-1.8784,-1.8775,-1.8775,-1.8774,-1.8774,0,-1.879,-1.878,-1.88,-1.8794,-1.8793,-1.8809,-1.8804,-1.8815,-1.8809,-1.8823,-1.8825,-1.8816,-1.8826,-1.8816,-1.8825,-1.882,-1.8845,-1.8839,-1.8845,-1.8843,-1.8863,-1.8861,-1.8932,-1.894,-1.8874,-1.8875,-1.8875,0,-1.8824,-1.8838,-1.8833,-1.8839,-1.8839,-1.8849,-1.8853,-1.8839,-1.8845,-1.8846,-1.8857,-1.8865,-1.8871,-1.8888,-1.8882,-1.8889,-1.8882,-1.8907,-1.8884,-1.8887,-1.8882,-1.8881,-1.8883,-1.8911,-1.8912,-1.8913,-1.8913,0,-1.8884,-1.8878,-1.8885,-1.889,-1.8896,-1.89,-1.8902,-1.8908,-1.8893,-1.89,-1.891,-1.8915,-1.8924,-1.8932,-1.8937,-1.8936,-1.8922,-1.8921,-1.8925,-1.8929,-1.8932,-1.893,-1.8857,-1.8919,-1.8919,-1.8918,-1.8918,-1.8918,-1.893,-1.8941,-1.8939,-1.8947,-1.8947,-1.8949,-1.8959,-1.8953,-1.8961,-1.8967,-1.8958,-1.897,-1.8969,-1.8974,-1.8975,-1.8984,-1.8973,-1.8981,-1.8982,-1.8984,-1.8987,-1.8931,-1.8985,-1.8984,-1.8984,-1.8984,-1.8984,0,-1.8989,-1.8986,-1.8994,-1.8997,-1.9003,-1.8989,-1.899,-1.8996,-1.9007,-1.9007,-1.9013,-1.9023,-1.9031,-1.9025,-1.9032,-1.904,-1.9034,-1.9042,-1.9041,-1.9041,-1.8996,-1.8991,-1.9047,-1.9047,-1.9047,-1.9047,-1.9047,-1.9047,-1.902,-1.9038,-1.9032,-1.9049,-1.9046,-1.9057,-1.9059,-1.9061,-1.9061,-1.9073,-1.9079,-1.9075,-1.9073,-1.9078,-1.9085,-1.9083,-1.9086,-1.9096,-1.9092,-1.905,-1.9044,-1.9038,-1.9033,-1.9097,-1.9097,-1.9136,-1.9136,-1.9137]},{"header":{"parameterUnit":"m.s-1","parameterCategory":1,"la1":30.2991,"la2":30.254,"lo1":-89.0895,"lo2":-89.0444,"dy":0.0017,"dx":0.0017,"nx":28,"ny":28,"refTime":"2024-02-10T09:00:00:Z","depth":0,"parameterNumber":3,"parameterNumberName":"V-component_of_WINDS"},"data":[0,0,0,0,0,0,0,0,0,0,0,0,0,0,0,0,0,0,0,0,0,0,0,0,0,0,0,0,0,0,0,0,0,0,0,0,0,0,0,0,0,0,0,0,0,0,0,0,0,0,0,0,0,0,0,0,0,0,-0.6049,-0.605,0,-0.6184,-0.6185,-0.6187,-0.6194,-0.6192,-0.6191,-0.6189,-0.633,-0.6335,-0.6341,0,0,0,0,0,0,0,0,0,0,0,0,0,-0.58,-0.5805,-0.6049,-0.6051,-0.6052,-0.6184,-0.6185,-0.6187,-0.6194,-0.6192,-0.619,-0.6188,-0.6329,-0.6335,-0.6341,0,0,0,0,0,0,0,0,0,0,0,0,0,-0.5919,-0.5806,-0.6049,-0.6071,-0.6075,-0.6183,-0.6185,-0.6188,-0.6194,-0.6192,-0.619,-0.6188,-0.6327,-0.6334,-0.6342,-0.6438,0,0,-0.6366,-0.6369,0,0,0,0,0,0,0,0,-0.5912,-0.5928,-0.6066,-0.607,-0.6074,-0.6169,-0.6149,-0.6272,-0.6195,-0.6149,-0.6189,-0.6186,-0.6279,-0.6291,-0.6321,-0.6444,-0.645,-0.6367,-0.6371,-0.6375,-0.6377,0,0,0,0,0,0,0,-0.5904,-0.5922,-0.6102,-0.6068,-0.6073,-0.6076,-0.609,-0.6173,-0.6226,-0.6153,-0.6154,-0.6169,-0.6281,-0.6314,-0.6324,-0.6452,-0.6366,-0.6373,-0.6378,-0.6381,-0.6661,-0.6664,0,0,0,0,0,0,-0.5891,-0.5915,-0.6098,-0.6106,-0.5985,-0.6082,-0.6098,-0.6141,-0.6225,-0.6235,-0.6171,-0.6169,-0.6301,-0.6315,-0.6329,-0.6448,-0.6375,-0.6382,-0.6386,-0.6659,-0.6662,-0.6665,0,0,0,0,0,0,-0.5885,-0.5907,-0.6093,-0.6011,-0.6035,-0.6089,-0.6137,-0.6145,-0.6178,-0.6239,-0.6248,-0.6195,-0.63,-0.6318,-0.6411,-0.6453,-0.6385,-0.6393,-0.6655,-0.666,-0.6663,-0.6685,0,0,0,0,0,0,-0.5878,-0.5905,-0.5941,-0.6012,-0.6039,-0.6171,-0.614,-0.615,-0.6191,-0.619,-0.6264,-0.6274,-0.63,-0.6399,-0.6418,-0.6462,-0.6399,-0.6652,-0.6657,-0.6662,-0.668,-0.6689,-0.6696,0,0,0,0,0,-0.5869,-0.5943,-0.5943,-0.5965,-0.6086,-0.6173,-0.6189,-0.6216,-0.6195,-0.6232,-0.6271,-0.6271,-0.6444,-0.6408,-0.643,-0.6477,-0.6649,-0.6656,-0.6662,-0.6677,-0.6687,-0.6696,0,0,0,0,0,0,-0.5877,-0.5952,-0.5954,-0.6052,-0.6106,-0.6174,-0.6222,-0.6226,-0.6289,-0.6285,-0.6317,-0.6334,-0.6425,-0.646,-0.6419,-0.6574,-0.6545,-0.6555,-0.6549,-0.6559,-0.6567,-0.6557,-0.6405,0,0,0,0,0,-0.5889,-0.5953,-0.6016,-0.6097,-0.6123,-0.6168,-0.6207,-0.6224,-0.6281,-0.6305,-0.635,-0.6407,-0.6475,-0.6518,-0.6584,-0.6685,-0.6702,-0.6728,-0.6736,-0.6742,-0.6752,-0.6809,-0.6821,-0.6685,-0.6685,-0.6685,0,0,-0.5917,-0.5966,-0.6005,-0.6099,-0.6143,-0.621,-0.6187,-0.6259,-0.6309,-0.6316,-0.6406,-0.6441,-0.6507,-0.6604,-0.6649,-0.6636,-0.6793,-0.675,-0.6754,-0.6761,-0.6816,-0.6829,-0.6841,-0.6689,-0.6689,-0.6688,0,0,-0.6002,-0.6045,-0.6117,-0.6161,-0.6227,-0.6256,-0.6273,-0.6341,-0.6365,-0.6455,-0.6462,-0.6522,-0.6637,-0.6684,-0.6723,-0.6824,-0.6827,-0.6844,-0.6886,-0.6941,-0.6952,-0.6962,-0.6999,-0.7012,-0.6853,-0.6853,-0.6853,0,-0.6028,-0.6128,-0.6153,-0.6225,-0.6266,-0.6275,-0.6349,-0.639,-0.6475,-0.6504,-0.6487,-0.6632,-0.6677,-0.6786,-0.681,-0.6841,-0.6863,-0.6837,-0.6948,-0.6958,-0.6968,-0.7004,-0.7018,-0.6855,-0.6855,-0.6855,-0.6854,0,-0.6157,-0.6226,-0.6276,-0.6357,-0.6404,-0.6476,-0.6514,-0.6559,-0.6571,-0.6602,-0.6694,-0.6748,-0.6824,-0.6851,-0.6864,-0.6962,-0.6952,-0.6941,-0.6912,-0.6982,-0.7017,-0.7031,-0.6858,-0.6857,-0.6856,-0.6856,0,0,-0.6252,-0.6345,-0.6363,-0.64,-0.6473,-0.6528,-0.66,-0.6674,-0.6712,-0.677,-0.6833,-0.6929,-0.692,-0.6964,-0.6982,-0.703,-0.7109,-0.7014,-0.7017,-0.7031,-0.7222,-0.723,-0.7246,-0.711,-0.7113,-0.7115,-0.7217,0,-0.6346,-0.6474,-0.6499,-0.6612,-0.6676,-0.6684,-0.6748,-0.68,-0.6831,-0.6891,-0.6925,-0.6994,-0.6975,-0.7002,-0.705,-0.7089,-0.7148,-0.7082,-0.7171,-0.7173,-0.7156,-0.7264,-0.7273,-0.7366,-0.723,-0.7232,-0.7234,0,-0.6473,-0.6532,-0.6651,-0.6716,-0.6744,-0.68,-0.687,-0.6927,-0.6986,-0.7005,-0.7054,-0.7067,-0.7143,-0.7109,-0.7216,-0.7171,-0.7208,-0.7233,-0.7237,-0.7248,-0.7209,-0.7279,-0.7396,-0.7411,-0.7255,-0.7254,-0.7252,0,-0.6531,-0.6642,-0.6727,-0.6758,-0.6835,-0.6875,-0.6909,-0.6966,-0.7009,-0.707,-0.7099,-0.7168,-0.7207,-0.7261,-0.7292,-0.7264,-0.7397,-0.7365,-0.7416,-0.7416,-0.7446,-0.7444,-0.7573,-0.7467,-0.7467,-0.7466,-0.7466,0,-0.6634,-0.6707,-0.6754,-0.6807,-0.6889,-0.6917,-0.6997,-0.7031,-0.7082,-0.7142,-0.7153,-0.7209,-0.7246,-0.7308,-0.7333,-0.7419,-0.7436,-0.7454,-0.7461,-0.7455,-0.7452,-0.7481,-0.7476,-0.747,-0.7469,-0.7469,-0.7468,0,-0.6715,-0.6749,-0.6843,-0.6908,-0.6926,-0.6984,-0.704,-0.7092,-0.7122,-0.7198,-0.7217,-0.7265,-0.7339,-0.7375,-0.7466,-0.7483,-0.758,-0.7581,-0.756,-0.7563,-0.7612,-0.7608,-0.7766,-0.7788,-0.7666,-0.7667,-0.7668,0,-0.6779,-0.6835,-0.6906,-0.6946,-0.6981,-0.7047,-0.709,-0.712,-0.7165,-0.7237,-0.728,-0.7354,-0.7415,-0.7532,-0.7575,-0.7646,-0.765,-0.77,-0.766,-0.7653,-0.7652,-0.7649,-0.7656,-0.7708,-0.7709,-0.771,-0.7711,0,-0.689,-0.6904,-0.6966,-0.7034,-0.7085,-0.7141,-0.7195,-0.7228,-0.7266,-0.7316,-0.7391,-0.7438,-0.7531,-0.7604,-0.7677,-0.7714,-0.772,-0.7722,-0.7738,-0.7734,-0.772,-0.773,-0.7581,-0.7719,-0.7718,-0.7718,-0.7717,-0.7717,-0.6966,-0.7016,-0.7074,-0.7143,-0.7186,-0.7237,-0.7289,-0.7325,-0.7387,-0.7465,-0.7478,-0.7558,-0.7617,-0.7715,-0.7754,-0.7817,-0.7806,-0.7829,-0.7835,-0.7841,-0.7844,-0.7708,-0.783,-0.783,-0.783,-0.783,-0.783,0,-0.7079,-0.7116,-0.7179,-0.7254,-0.7308,-0.7307,-0.7367,-0.7413,-0.7482,-0.7536,-0.7595,-0.7681,-0.7752,-0.7801,-0.7873,-0.7915,-0.7919,-0.7933,-0.7931,-0.794,-0.7849,-0.7829,-0.7928,-0.7928,-0.7928,-0.7928,-0.7928,-0.7928,-0.7145,-0.723,-0.7251,-0.7358,-0.7395,-0.7472,-0.7507,-0.7554,-0.7597,-0.7692,-0.7751,-0.7782,-0.7834,-0.791,-0.7976,-0.7988,-0.8015,-0.8029,-0.8042,-0.7957,-0.7946,-0.7937,-0.7918,-0.8035,-0.8035,-0.8128,-0.8129,-0.813]}]]